This is the latest recevied weather packets stored in our database for station/object KM6YFK-13. If no packets are shown the sender has not sent any weather packets the latest 1 day(s).
| Time | Temp. | Humidity | Pressure | Rain* | Wind** | Luminosity | Snow |
|---|---|---|---|---|---|---|---|
| 1778020409 | 25° C | 48% | 1015.7 hPa | 0 mm | 0.89 m/s, 133° | 189 W/m² | - |
| 1778020108 | 25.56° C | 46% | 1015.7 hPa | 0 mm | 0.89 m/s, 130° | 218 W/m² | - |
| 1778019809 | 25.56° C | 47% | 1015.6 hPa | 0 mm | 0.89 m/s, 136° | 244 W/m² | - |
| 1778019509 | 25.56° C | 49% | 1015.7 hPa | 0 mm | 0.89 m/s, 120° | 272 W/m² | - |
| 1778019209 | 25.56° C | 50% | 1015.7 hPa | 0 mm | 0.89 m/s, 131° | 298 W/m² | - |
| 1778018907 | 25.56° C | 49% | 1015.8 hPa | 0 mm | 0.89 m/s, 118° | 316 W/m² | - |
| 1778018611 | 25.56° C | 46% | 1015.8 hPa | 0 mm | 0.89 m/s, 126° | 282 W/m² | - |
| 1778018310 | 25.56° C | 47% | 1015.7 hPa | 0 mm | 0.89 m/s, 133° | 328 W/m² | - |
| 1778018010 | 25° C | 49% | 1015.7 hPa | 0 mm | 0.45 m/s, 121° | 347 W/m² | - |
| 1778017709 | 25° C | 48% | 1015.7 hPa | 0 mm | 0.89 m/s, 109° | 379 W/m² | - |
| 1778017407 | 25.56° C | 47% | 1015.8 hPa | 0 mm | 0.89 m/s, 105° | 396 W/m² | - |
| 1778017109 | 25.56° C | 46% | 1015.8 hPa | 0 mm | 0.89 m/s, 94° | 405 W/m² | - |
| 1778016809 | 25.56° C | 48% | 1015.8 hPa | 0 mm | 0.89 m/s, 128° | 428 W/m² | - |
| 1778016510 | 25.56° C | 47% | 1015.8 hPa | 0 mm | 0.89 m/s, 79° | 427 W/m² | - |
| 1778016211 | 25.56° C | 45% | 1015.8 hPa | 0 mm | 0.89 m/s, 119° | 481 W/m² | - |
| 1778015909 | 25.56° C | 45% | 1015.9 hPa | 0 mm | 0.45 m/s, 126° | 459 W/m² | - |
| 1778015610 | 25.56° C | 44% | 1015.9 hPa | 0 mm | 0.89 m/s, 105° | 472 W/m² | - |
| 1778015311 | 25.56° C | 43% | 1016 hPa | 0 mm | 0.89 m/s, 97° | 496 W/m² | - |
| 1778015009 | 25.56° C | 42% | 1015.9 hPa | 0 mm | 0.89 m/s, 123° | 513 W/m² | - |
| 1778014710 | 25.56° C | 44% | 1015.9 hPa | 0 mm | 0.89 m/s, 107° | 536 W/m² | - |
| 1778014410 | 25° C | 43% | 1015.9 hPa | 0 mm | 0.89 m/s, 125° | 575 W/m² | - |
| 1778014110 | 25.56° C | 43% | 1015.9 hPa | 0 mm | 0.89 m/s, 90° | 542 W/m² | - |
| 1778013810 | 25.56° C | 46% | 1015.9 hPa | 0 mm | 0.89 m/s, 95° | 568 W/m² | - |
| 1778013229 | 25.56° C | 48% | 1015.8 hPa | 0 mm | 0.89 m/s, 101° | 629 W/m² | - |
| 1778012910 | 25.56° C | 47% | 1015.9 hPa | 0 mm | 0.89 m/s, 105° | 636 W/m² | - |
* Rain latest hour (hover to see other rain measurements)
** Current wind speed in m/s (hover to see current wind gust speed)